When you browse on this site, cookies collect data to enhance your experience and personalize the content and advertising you see.
Visit our Privacy Policy to learn more. By continuing to use the site, you agree to this use of cookies and data.
  • En España
  • Lista de países
  • Para 7 días
  • Temperatura del agua
  • El tiempo en el mapa
  • Informadores
  • user-avatar
    Iniciar sesión

    Tiempo cada hora Llaillay

    Hoy, 18 Febrero, Martes

    Tiempo Temperatura Precipitaciones Viento Presión Humedad
    00:00 +16°C° 0 mm 1 mps 725 mmHg 65%
    01:00 +16°C° 0 mm 1 mps 725 mmHg 64%
    02:00 +15°C° 0 mm 1 mps 724 mmHg 64%
    03:00 +15°C° 0 mm 1 mps 724 mmHg 65%
    04:00 +15°C° 0 mm 1 mps 724 mmHg 65%
    05:00 +19°C° 0 mm 1 mps 724 mmHg 53%
    06:00 +23°C° 0 mm 1 mps 725 mmHg 41%
    07:00 +24°C° 0 mm 0 mps 726 mmHg 29%
    08:00 +29°C° 0 mm 1 mps 726 mmHg 25%
    09:00 +32°C° 0 mm 1 mps 726 mmHg 20%
    10:00 +36°C° 0 mm 2 mps 726 mmHg 16%
    11:00 +37°C° 0 mm 3 mps 726 mmHg 16%
    12:00 +38°C° 0 mm 3 mps 726 mmHg 16%
    13:00 +40°C° 0 mm 4 mps 726 mmHg 15%
    14:00 +38°C° 0 mm 4 mps 726 mmHg 17%
    15:00 +37°C° 0 mm 4 mps 725 mmHg 19%
    16:00 +36°C° 0 mm 4 mps 725 mmHg 20%
    17:00 +30°C° 0 mm 3 mps 725 mmHg 35%
    18:00 +25°C° 0 mm 2 mps 725 mmHg 49%
    19:00 +20°C° 0 mm 1 mps 724 mmHg 64%
    20:00 +19°C° 0 mm 1 mps 724 mmHg 66%
    21:00 +16°C° 0 mm 0 mps 724 mmHg 68%
    22:00 +15°C° 0 mm 0 mps 724 mmHg 70%
    23:00 +14°C° 0 mm 0 mps 724 mmHg 69%

    Mañana, 19 Febrero, Miércoles

    Tiempo Temperatura Precipitaciones Viento Presión Humedad
    00:00 +14°C° 0 mm 0 mps 724 mmHg 69%
    01:00 +14°C° 0 mm 0 mps 724 mmHg 68%
    02:00 +14°C° 0 mm 0 mps 724 mmHg 67%
    03:00 +14°C° 0 mm 0 mps 723 mmHg 66%
    04:00 +14°C° 0 mm 0 mps 723 mmHg 66%
    05:00 +17°C° 0 mm 0 mps 724 mmHg 54%
    06:00 +21°C° 0 mm 0 mps 725 mmHg 42%
    07:00 +24°C° 0 mm 0 mps 725 mmHg 30%
    08:00 +29°C° 0 mm 1 mps 726 mmHg 26%
    09:00 +31°C° 0 mm 1 mps 726 mmHg 23%
    10:00 +35°C° 0 mm 2 mps 726 mmHg 19%
    11:00 +36°C° 0 mm 3 mps 726 mmHg 19%
    12:00 +36°C° 0 mm 3 mps 726 mmHg 19%
    13:00 +37°C° 0 mm 4 mps 725 mmHg 19%
    14:00 +36°C° 0 mm 4 mps 725 mmHg 21%
    15:00 +36°C° 0 mm 4 mps 725 mmHg 23%
    16:00 +35°C° 0 mm 4 mps 724 mmHg 25%
    17:00 +29°C° 0 mm 3 mps 724 mmHg 40%
    18:00 +24°C° 0 mm 2 mps 724 mmHg 55%
    19:00 +19°C° 0 mm 1 mps 724 mmHg 70%
    20:00 +16°C° 0 mm 0 mps 724 mmHg 71%
    21:00 +16°C° 0 mm 0 mps 724 mmHg 71%
    22:00 +15°C° 0 mm 0 mps 724 mmHg 72%
    23:00 +14°C° 0 mm 0 mps 724 mmHg 71%

    Pasado mañana, 20 Febrero, Jueves

    Tiempo Temperatura Precipitaciones Viento Presión Humedad
    00:00 +14°C° 0 mm 0 mps 723 mmHg 70%
    01:00 +14°C° 0 mm 0 mps 723 mmHg 70%
    02:00 +14°C° 0 mm 0 mps 723 mmHg 69%
    03:00 +14°C° 0 mm 0 mps 723 mmHg 69%
    04:00 +13°C° 0 mm 0 mps 723 mmHg 68%
    05:00 +17°C° 0 mm 0 mps 724 mmHg 57%
    06:00 +20°C° 0 mm 0 mps 725 mmHg 46%
    07:00 +24°C° 0 mm 0 mps 725 mmHg 35%
    08:00 +28°C° 0 mm 1 mps 726 mmHg 31%
    09:00 +31°C° 0 mm 2 mps 726 mmHg 27%
    10:00 +34°C° 0 mm 3 mps 726 mmHg 23%
    11:00 +35°C° 0 mm 3 mps 727 mmHg 23%
    12:00 +35°C° 0 mm 4 mps 727 mmHg 24%
    13:00 +36°C° 0 mm 4 mps 727 mmHg 24%
    14:00 +35°C° 0 mm 4 mps 727 mmHg 27%
    15:00 +34°C° 0 mm 4 mps 727 mmHg 29%
    16:00 +33°C° 0 mm 4 mps 727 mmHg 31%
    17:00 +27°C° 0 mm 3 mps 727 mmHg 47%
    18:00 +23°C° 0 mm 2 mps 727 mmHg 62%
    19:00 +19°C° 0 mm 1 mps 727 mmHg 77%
    20:00 +18°C° 0 mm 1 mps 727 mmHg 79%
    21:00 +15°C° 0 mm 0 mps 727 mmHg 82%
    22:00 +14°C° 0 mm 0 mps 726 mmHg 84%
    23:00 +13°C° 0 mm 0 mps 726 mmHg 84%

    21 Febrero, Viernes

    Tiempo Temperatura Precipitaciones Viento Presión Humedad
    00:00 +13°C° 0 mm 0 mps 726 mmHg 84%
    01:00 +13°C° 0 mm 0 mps 726 mmHg 85%
    08:00 +24°C° 0 mm 1 mps 728 mmHg 53%
    09:00 +27°C° 0 mm 2 mps 728 mmHg 44%
    10:00 +30°C° 0 mm 2 mps 728 mmHg 36%
    11:00 +31°C° 0 mm 3 mps 728 mmHg 34%
    12:00 +33°C° 0 mm 3 mps 728 mmHg 32%
    13:00 +34°C° 0 mm 4 mps 728 mmHg 31%
    14:00 +33°C° 0 mm 4 mps 727 mmHg 32%
    15:00 +32°C° 0 mm 4 mps 727 mmHg 34%
    16:00 +32°C° 0 mm 4 mps 727 mmHg 35%
    17:00 +27°C° 0 mm 3 mps 727 mmHg 49%
    18:00 +23°C° 0 mm 2 mps 726 mmHg 63%
    19:00 +19°C° 0 mm 1 mps 726 mmHg 77%
    20:00 +18°C° 0 mm 1 mps 726 mmHg 79%
    21:00 +15°C° 0 mm 0 mps 726 mmHg 82%
    22:00 +14°C° 0 mm 0 mps 726 mmHg 84%
    23:00 +14°C° 0 mm 0 mps 726 mmHg 84%

    22 Febrero, Sábado

    Tiempo Temperatura Precipitaciones Viento Presión Humedad
    00:00 +13°C° 0 mm 0 mps 726 mmHg 84%
    01:00 +13°C° 0 mm 0 mps 726 mmHg 84%
    02:00 +13°C° 0 mm 0 mps 726 mmHg 85%
    03:00 +12°C° 0 mm 0 mps 726 mmHg 86%
    04:00 +12°C° 0 mm 0 mps 726 mmHg 87%
    05:00 +15°C° 0 mm 0 mps 727 mmHg 78%
    06:00 +17°C° 0 mm 0 mps 727 mmHg 69%
    07:00 +22°C° 0 mm 1 mps 728 mmHg 61%
    08:00 +24°C° 0 mm 1 mps 728 mmHg 53%
    09:00 +27°C° 0 mm 2 mps 728 mmHg 46%
    10:00 +29°C° 0 mm 2 mps 728 mmHg 39%
    11:00 +30°C° 0 mm 3 mps 728 mmHg 37%
    12:00 +31°C° 0 mm 3 mps 728 mmHg 35%
    13:00 +33°C° 0 mm 4 mps 728 mmHg 33%
    14:00 +32°C° 0 mm 4 mps 727 mmHg 35%
    15:00 +30°C° 0 mm 4 mps 727 mmHg 37%
    16:00 +30°C° 0 mm 4 mps 727 mmHg 39%
    17:00 +26°C° 0 mm 3 mps 726 mmHg 53%
    18:00 +21°C° 0 mm 2 mps 726 mmHg 67%
    19:00 +18°C° 0 mm 1 mps 726 mmHg 81%
    20:00 +16°C° 0 mm 1 mps 726 mmHg 82%
    21:00 +14°C° 0 mm 0 mps 726 mmHg 84%
    22:00 +13°C° 0 mm 0 mps 726 mmHg 86%
    23:00 +13°C° 0 mm 0 mps 726 mmHg 86%

    23 Febrero, Domingo

    Tiempo Temperatura Precipitaciones Viento Presión Humedad
    00:00 +13°C° 0 mm 0 mps 725 mmHg 86%
    01:00 +12°C° 0 mm 0 mps 725 mmHg 86%
    02:00 +12°C° 0 mm 0 mps 725 mmHg 86%
    03:00 +12°C° 0 mm 0 mps 725 mmHg 87%
    04:00 +11°C° 0 mm 0 mps 725 mmHg 88%
    05:00 +14°C° 0 mm 0 mps 726 mmHg 80%
    06:00 +16°C° 0 mm 0 mps 726 mmHg 73%
    07:00 +19°C° 0 mm 0 mps 727 mmHg 65%
    08:00 +23°C° 0 mm 1 mps 727 mmHg 58%
    09:00 +26°C° 0 mm 2 mps 727 mmHg 51%
    10:00 +28°C° 0 mm 3 mps 728 mmHg 43%
    11:00 +29°C° 0 mm 3 mps 728 mmHg 42%
    12:00 +29°C° 0 mm 4 mps 728 mmHg 40%
    13:00 +30°C° 0 mm 4 mps 728 mmHg 38%
    14:00 +29°C° 0 mm 4 mps 728 mmHg 40%
    15:00 +28°C° 0 mm 4 mps 727 mmHg 41%
    16:00 +27°C° 0 mm 4 mps 727 mmHg 43%
    17:00 +24°C° 0 mm 3 mps 727 mmHg 57%
    18:00 +19°C° 0 mm 2 mps 727 mmHg 70%
    19:00 +15°C° 0 mm 1 mps 727 mmHg 84%
    20:00 +14°C° 0 mm 1 mps 727 mmHg 87%
    21:00 +12°C° 0 mm 0 mps 727 mmHg 91%
    22:00 +11°C° 0 mm 0 mps 727 mmHg 94%
    23:00 +11°C° 0 mm 0 mps 727 mmHg 94%
    Mostrar más